EW5495 Weather Reports


time (UTC)temp
C
wind
direction
speed
KPH
gust
KPH
rain 1hr
cm
rain 24hr
cm
rain mn
cm
humidity
%
barometer
mb
20260509024303 23 122 3.2 12.9 0.00 0.00 0.00 51 1023.8
20260509023304 23 85 3.2 9.7 0.00 0.00 0.00 51 1023.9
20260509021303 22 9 4.8 12.9 0.00 0.00 0.00 52 1024.1
20260509020303 22 36 4.8 8.0 0.00 0.00 0.00 52 1024.6
20260509015306 22 180 3.2 9.7 0.00 0.00 0.00 52 1024.4
20260509014305 22 321 3.2 6.4 0.00 0.00 0.00 53 1024.7
20260509011303 20 331 0.0 6.4 0.00 0.00 0.00 57 1025.0
20260509010302 20 297 1.6 8.0 0.00 0.00 0.00 56 1025.3
20260509004304 20 255 3.2 6.4 0.00 0.00 0.00 56 1025.4
20260509003303 19 266 3.2 6.4 0.00 0.00 0.00 57 1025.4
20260509002306 18 273 1.6 8.0 0.00 0.00 0.00 57 1025.5
20260509001304 18 274 4.8 9.7 0.00 0.00 0.00 55 1025.5
20260509000304 18 183 3.2 9.7 0.00 0.00 0.00 56 1025.7
20260508235306 18 255 6.4 9.7 0.00 0.00 0.00 57 1025.5
20260508233303 16 253 3.2 8.0 0.00 0.00 0.00 60 1025.5
20260508231310 16 293 4.8 12.9 0.00 0.00 0.00 62 1025.5
20260508230305 15 248 1.6 12.9 0.00 0.00 0.00 64 1025.4
20260508225306 15 256 3.2 14.5 0.00 0.00 0.00 67 1025.0
20260508224302 13 258 6.4 9.7 0.00 0.00 0.00 68 1025.0
20260508223304 13 253 3.2 9.7 0.00 0.00 0.00 69 1024.8
20260508221304 12 282 4.8 9.7 0.00 0.00 0.00 72 1024.6
20260508220303 12 258 4.8 9.7 0.00 0.00 0.00 73 1024.9
20260508214303 11 266 4.8 8.0 0.00 0.00 0.00 75 1024.2
20260508213303 11 279 3.2 9.7 0.00 0.00 0.00 77 1024.0
20260508212306 11 290 0.0 9.7 0.00 0.00 0.00 79 1023.9
20260508211304 10 298 4.8 8.0 0.00 0.00 0.00 81 1023.8
20260508210305 10 300 3.2 8.0 0.00 0.00 0.00 81 1024.1
20260508205306 10 300 3.2 8.0 0.00 0.00 0.00 83 1023.7
20260508203304 10 320 4.8 8.0 0.00 0.00 0.00 85 1023.3
20260508202306 10 352 3.2 6.4 0.00 0.00 0.00 85 1023.5
20260508201306 10 352 1.6 8.0 0.00 0.00 0.00 85 1023.4
20260508200302 10 3 1.6 3.2 0.00 0.00 0.00 85 1023.5
20260508195306 10 3 3.2 3.2 0.00 0.00 0.00 85 1023.0
20260508194303 10 3 3.2 6.4 0.00 0.00 0.00 84 1022.9
20260508193303 10 3 1.6 3.2 0.00 0.00 0.00 84 1022.7
20260508191305 10 3 3.2 6.4 0.00 0.00 0.00 83 1022.5
20260508185306 10 3 3.2 3.2 0.00 0.00 0.00 82 1022.3
20260508184303 11 3 1.6 6.4 0.00 0.00 0.00 81 1022.4
20260508182306 11 3 3.2 6.4 0.00 0.00 0.00 81 1022.3
20260508181309 11 6 0.0 3.2 0.00 0.00 0.00 80 1022.2
20260508180303 11 6 3.2 3.2 0.00 0.00 0.00 80 1022.3
20260508174303 11 6 0.0 8.0 0.00 0.00 0.00 78 1022.1
20260508173303 11 10 1.6 6.4 0.00 0.00 0.00 78 1022.1
20260508172307 11 10 0.0 1.6 0.00 0.00 0.00 78 1022.1
20260508171304 11 10 1.6 1.6 0.00 0.00 0.00 75 1022.1
20260508165306 11 10 1.6 3.2 0.00 0.00 0.00 74 1021.8
20260508164304 11 10 0.0 6.4 0.00 0.00 0.00 73 1021.7
20260508163304 11 13 1.6 6.4 0.00 0.00 0.00 74 1021.8
20260508160303 11 16 1.6 3.2 0.00 0.00 0.00 73 1021.9
20260508155306 11 16 1.6 3.2 0.00 0.00 0.00 72 1021.7
20260508153305 11 16 0.0 1.6 0.00 0.00 0.00 73 1021.9
20260508152305 11 16 0.0 0.0 0.00 0.00 0.00 72 1021.8
20260508151305 11 16 0.0 0.0 0.00 0.00 0.00 71 1021.7
20260508150305 11 16 0.0 1.6 0.00 0.00 0.00 72 1021.9
20260508145306 11 16 1.6 3.2 0.00 0.00 0.00 73 1021.5
20260508143302 11 16 1.6 3.2 0.00 0.00 0.00 73 1021.6
20260508142306 11 16 0.0 1.6 0.00 0.00 0.00 76 1021.4
20260508141302 11 16 0.0 1.6 0.00 0.00 0.00 77 1021.7
20260508140305 11 16 0.0 0.0 0.00 0.00 0.00 75 1021.8
20260508135306 11 16 0.0 0.0 0.00 0.00 0.00 74 1021.4
20260508134305 12 16 0.0 1.6 0.00 0.00 0.00 75 1021.5
20260508133306 12 16 3.2 3.2 0.00 0.00 0.00 76 1021.4
20260508132306 12 16 3.2 3.2 0.00 0.00 0.00 77 1021.3
20260508131304 11 16 1.6 1.6 0.00 0.00 0.00 79 1021.2
20260508130305 11 16 0.0 0.0 0.00 0.00 0.00 79 1021.2
20260508125306 12 16 0.0 0.0 0.00 0.00 0.00 77 1021.0
20260508124303 12 16 0.0 0.0 0.00 0.00 0.00 74 1021.0
20260508123306 12 16 1.6 3.2 0.00 0.00 0.00 74 1021.1
20260508122306 12 16 0.0 1.6 0.00 0.00 0.00 75 1021.1
20260508120304 12 16 0.0 0.0 0.00 0.00 0.00 79 1021.4
20260508115306 12 16 0.0 1.6 0.00 0.00 0.00 76 1021.2
20260508113305 12 16 0.0 1.6 0.00 0.00 0.00 73 1021.3
20260508111304 13 16 0.0 1.6 0.00 0.00 0.00 71 1021.1
20260508110303 13 16 1.6 3.2 0.00 0.00 0.00 72 1021.3
20260508105306 13 16 0.0 1.6 0.00 0.00 0.00 70 1021.0
20260508104303 13 16 1.6 3.2 0.00 0.00 0.00 70 1021.1
20260508103305 13 16 0.0 1.6 0.00 0.00 0.00 69 1020.9
20260508102306 13 74 1.6 3.2 0.00 0.00 0.00 68 1021.0
20260508101304 14 50 0.0 3.2 0.00 0.00 0.00 67 1021.0
20260508094305 15 50 0.0 3.2 0.00 0.00 0.00 61 1020.6
20260508093303 15 50 1.6 1.6 0.00 0.00 0.00 63 1020.5
20260508090304 15 50 3.2 3.2 0.00 0.00 0.00 57 1020.5
20260508084304 15 47 3.2 6.4 0.00 0.00 0.00 54 1019.9
20260508083304 16 47 1.6 3.2 0.00 0.00 0.00 54 1019.8
20260508081304 16 47 1.6 6.4 0.00 0.00 0.00 51 1019.6
20260508080304 17 47 0.0 1.6 0.00 0.00 0.00 52 1019.4
20260508075308 17 47 0.0 1.6 0.00 0.00 0.00 48 1019.1
20260508074303 17 47 1.6 3.2 0.00 0.00 0.00 47 1019.0
20260508073303 18 47 1.6 3.2 0.00 0.00 0.00 43 1019.0
20260508071305 20 23 1.6 3.2 0.00 0.00 0.00 36 1018.9
20260508070303 20 26 1.6 3.2 0.00 0.00 0.00 34 1019.1
20260508065307 21 19 1.6 1.6 0.00 0.00 0.00 33 1018.9
20260508063303 22 19 0.0 3.2 0.00 0.00 0.00 31 1018.6
20260508062306 22 19 1.6 6.4 0.00 0.00 0.00 30 1018.6
20260508061306 23 19 3.2 6.4 0.00 0.00 0.00 27 1018.6
20260508060303 23 20 3.2 6.4 0.00 0.00 0.00 28 1018.8
20260508055306 22 20 0.0 8.0 0.00 0.00 0.00 28 1018.6
20260508054303 23 5 4.8 8.0 0.00 0.00 0.00 26 1018.8
20260508052307 22 276 3.2 9.7 0.00 0.00 0.00 26 1018.9
20260508051304 22 279 6.4 14.5 0.00 0.00 0.00 27 1018.9
20260508050304 22 337 4.8 12.9 0.00 0.00 0.00 27 1019.1
20260508045306 22 353 4.8 14.5 0.00 0.00 0.00 26 1019.1
20260508044304 22 279 4.8 14.5 0.00 0.00 0.00 28 1019.2
20260508043303 21 334 8.0 16.1 0.00 0.00 0.00 27 1019.1
20260508041305 21 267 4.8 19.3 0.00 0.00 0.00 28 1019.2
20260508040304 21 269 4.8 19.3 0.00 0.00 0.00 27 1019.7
20260508035306 21 238 8.0 19.3 0.00 0.00 0.00 26 1019.5
20260508034303 21 239 6.4 9.7 0.00 0.00 0.00 27 1019.6
20260508033303 21 249 4.8 14.5 0.00 0.00 0.00 29 1019.7
20260508032306 21 325 12.9 19.3 0.00 0.00 0.00 28 1019.9
20260508031305 21 265 6.4 12.9 0.00 0.00 0.00 28 1020.0
20260508025306 20 259 11.3 16.1 0.00 0.00 0.00 29 1020.2